Time,TemperatureF,DewpointF,PressureIn,WindDirection,WindDirectionDegrees,WindSpeedMPH,WindSpeedGustMPH,Humidity,HourlyPrecipIn,Conditions,Clouds,dailyrainin,SoftwareType,DateUTC
2013-01-30 00:02:00,42.1,40.5,29.94,North,5,2.0,3.0,94,0.01,,,0.30,meteohub,2013-01-29 23:02:00,
2013-01-30 00:32:00,42.3,40.6,29.93,East,89,2.0,3.0,94,0.01,,,0.31,meteohub,2013-01-29 23:32:00,
2013-01-30 01:02:00,42.3,40.5,29.93,ENE,59,1.0,3.0,93,0.02,,,0.31,meteohub,2013-01-30 00:02:00,
2013-01-30 01:32:00,42.4,40.8,29.93,NE,47,1.0,4.0,94,0.03,,,0.02,meteohub,2013-01-30 00:32:00,
2013-01-30 02:02:00,43.0,41.4,29.92,NE,50,3.0,6.0,94,0.06,,,0.06,meteohub,2013-01-30 01:02:00,
2013-01-30 02:32:00,43.3,41.7,29.92,NW,321,1.0,6.0,94,0.06,,,0.09,meteohub,2013-01-30 01:32:00,
2013-01-30 03:02:00,44.1,41.9,29.91,NE,44,0.0,7.0,92,0.06,,,0.11,meteohub,2013-01-30 02:02:00,
2013-01-30 03:32:00,44.2,42.3,29.91,East,88,1.0,10.0,93,0.02,,,0.11,meteohub,2013-01-30 02:32:00,
2013-01-30 04:02:00,44.6,42.4,29.91,East,96,2.0,8.0,92,0.01,,,0.12,meteohub,2013-01-30 03:02:00,
2013-01-30 04:32:00,45.0,43.0,29.90,ENE,60,3.0,13.0,93,0.02,,,0.13,meteohub,2013-01-30 03:32:00,
2013-01-30 05:02:00,45.1,43.0,29.91,East,93,0.0,6.0,92,0.01,,,0.13,meteohub,2013-01-30 04:02:00,
2013-01-30 05:32:00,46.0,43.5,29.91,NNE,17,1.0,5.0,91,0.00,,,0.13,meteohub,2013-01-30 04:32:00,
2013-01-30 06:02:00,46.8,44.2,29.90,WNW,295,1.0,6.0,91,0.00,,,0.13,meteohub,2013-01-30 05:02:00,
2013-01-30 06:32:00,46.9,44.2,29.90,SW,222,3.0,6.0,90,0.00,,,0.13,meteohub,2013-01-30 05:32:00,
2013-01-30 07:02:00,48.0,45.0,29.90,WSW,254,4.0,8.0,89,0.00,,,0.13,meteohub,2013-01-30 06:02:00,
2013-01-30 07:32:00,48.6,45.5,29.89,North,10,3.0,8.0,89,0.00,,,0.13,meteohub,2013-01-30 06:32:00,
2013-01-30 08:02:00,48.6,45.1,29.89,South,184,7.0,9.0,88,0.00,,,0.13,meteohub,2013-01-30 07:02:00,
2013-01-30 08:32:00,48.7,45.3,29.89,North,355,4.0,7.0,88,0.00,,,0.13,meteohub,2013-01-30 07:32:00,
2013-01-30 09:02:00,48.7,45.3,29.88,ESE,111,3.0,10.0,88,0.00,,,0.13,meteohub,2013-01-30 08:02:00,
2013-01-30 09:32:00,49.5,45.7,29.87,WNW,286,6.0,20.0,87,0.00,,,0.13,meteohub,2013-01-30 08:32:00,
2013-01-30 10:02:00,50.2,46.2,29.87,West,281,1.0,12.0,86,0.00,,,0.13,meteohub,2013-01-30 09:02:00,
2013-01-30 10:32:00,51.3,46.9,29.87,NW,309,7.0,14.0,85,0.00,,,0.13,meteohub,2013-01-30 09:32:00,
2013-01-30 11:02:00,52.2,47.1,29.86,SE,140,5.0,16.0,83,0.00,,,0.13,meteohub,2013-01-30 10:02:00,
2013-01-30 11:32:00,52.3,47.3,29.86,SW,221,7.0,17.0,83,0.00,,,0.13,meteohub,2013-01-30 10:32:00,
2013-01-30 12:02:00,53.2,47.8,29.83,ENE,61,4.0,10.0,82,0.00,,,0.13,meteohub,2013-01-30 11:02:00,
2013-01-30 12:32:00,54.1,48.4,29.82,ESE,115,2.0,15.0,81,0.00,,,0.13,meteohub,2013-01-30 11:32:00,
2013-01-30 13:02:00,54.5,48.4,29.80,SE,145,2.0,10.0,80,0.00,,,0.13,meteohub,2013-01-30 12:02:00,
2013-01-30 13:32:00,55.6,49.1,29.78,East,80,3.0,16.0,79,0.00,,,0.13,meteohub,2013-01-30 12:32:00,
2013-01-30 14:02:00,55.9,49.1,29.79,SSW,197,13.0,17.0,78,0.00,,,0.13,meteohub,2013-01-30 13:02:00,
2013-01-30 15:02:00,56.8,50.0,29.77,SW,229,13.0,16.0,78,0.00,,,0.13,meteohub,2013-01-30 14:02:00,
2013-01-30 15:32:00,56.5,50.0,29.76,NE,40,3.0,15.0,79,0.00,,,0.13,meteohub,2013-01-30 14:32:00,
2013-01-30 16:02:00,56.1,50.0,29.76,NNW,336,5.0,14.0,80,0.00,,,0.13,meteohub,2013-01-30 15:02:00,
2013-01-30 16:32:00,55.8,50.0,29.75,NNW,344,3.0,15.0,81,0.00,,,0.13,meteohub,2013-01-30 15:32:00,
2013-01-30 17:02:00,55.2,49.8,29.75,East,94,3.0,10.0,82,0.00,,,0.13,meteohub,2013-01-30 16:02:00,
2013-01-30 17:32:00,55.2,50.2,29.74,West,273,6.0,10.0,83,0.00,,,0.13,meteohub,2013-01-30 16:32:00,
2013-01-30 18:02:00,55.2,49.8,29.73,ESE,113,2.0,12.0,82,0.00,,,0.13,meteohub,2013-01-30 17:02:00,
2013-01-30 18:32:00,55.6,49.8,29.72,West,275,1.0,14.0,81,0.00,,,0.13,meteohub,2013-01-30 17:32:00,
2013-01-30 19:02:00,55.2,50.2,29.70,WSW,241,5.0,16.0,83,0.00,,,0.13,meteohub,2013-01-30 18:02:00,
2013-01-30 19:32:00,55.0,50.0,29.70,ENE,65,2.0,8.0,83,0.00,,,0.13,meteohub,2013-01-30 18:32:00,
2013-01-30 20:02:00,54.7,50.5,29.71,West,280,5.0,10.0,86,0.01,,,0.13,meteohub,2013-01-30 19:02:00,
2013-01-30 20:32:00,52.9,48.7,29.73,SSW,200,5.0,10.0,86,0.10,,,0.23,meteohub,2013-01-30 19:32:00,
2013-01-30 21:02:00,52.2,47.1,29.75,ENE,73,3.0,12.0,83,0.09,,,0.23,meteohub,2013-01-30 20:02:00,
2013-01-30 21:32:00,50.7,46.4,29.76,NE,42,1.0,5.0,85,0.00,,,0.23,meteohub,2013-01-30 20:32:00,
2013-01-30 22:02:00,51.4,45.1,29.78,ENE,70,5.0,9.0,79,0.00,,,0.23,meteohub,2013-01-30 21:02:00,
2013-01-30 22:32:00,51.1,45.9,29.81,North,5,9.0,11.0,82,0.00,,,0.23,meteohub,2013-01-30 21:32:00,
2013-01-30 23:02:00,48.6,44.6,29.82,NE,36,4.0,8.0,86,0.05,,,0.28,meteohub,2013-01-30 22:02:00,
2013-01-30 23:32:00,47.1,42.8,29.84,North,0,2.0,8.0,85,0.04,,,0.28,meteohub,2013-01-30 22:32:00,